• In United Kingdom
  • List of Countries
  • For 7 days
  • Water Temperature
  • Satellite Maps
  • Weather Map
  • Weather Widgets
  • user-avatar
    Login

    Hourly Weather Kalush

    Today, 23 May, Wednesday

    Time Temperature Precipitation Wind Pressure Humidity
    00:00 +14°C° 0 mm 1 mps 737 mmHg 89%
    01:00 +14°C° 0 mm 1 mps 737 mmHg 89%
    02:00 +13°C° 0 mm 1 mps 737 mmHg 89%
    03:00 +13°C° 0 mm 1 mps 737 mmHg 89%
    04:00 +13°C° 0 mm 1 mps 737 mmHg 88%
    05:00 +13°C° 0 mm 1 mps 737 mmHg 88%
    06:00 +15°C° 0 mm 1 mps 737 mmHg 82%
    07:00 +16°C° 0 mm 0 mps 738 mmHg 76%
    08:00 +19°C° 0 mm 0 mps 738 mmHg 70%
    09:00 +22°C° 0 mm 1 mps 738 mmHg 67%
    10:00 +23°C° 0 mm 1 mps 738 mmHg 64%
    11:00 +25°C° 0 mm 2 mps 738 mmHg 60%
    12:00 +25°C° 0.4 mm 2 mps 738 mmHg 61%
    13:00 +25°C° 0.4 mm 2 mps 738 mmHg 62%
    14:00 +25°C° 0.4 mm 2 mps 738 mmHg 62%
    15:00 +25°C° 0.7 mm 2 mps 737 mmHg 67%
    16:00 +24°C° 0.7 mm 2 mps 737 mmHg 71%
    17:00 +24°C° 0.7 mm 2 mps 737 mmHg 75%
    18:00 +23°C° 0.3 mm 2 mps 737 mmHg 78%
    19:00 +21°C° 0.3 mm 1 mps 737 mmHg 81%
    20:00 +20°C° 0.3 mm 1 mps 737 mmHg 84%
    21:00 +19°C° 0.1 mm 1 mps 737 mmHg 85%
    22:00 +18°C° 0.1 mm 1 mps 737 mmHg 86%
    23:00 +16°C° 0.1 mm 1 mps 737 mmHg 86%

    Tomorrow, 24 May, Thursday

    Time Temperature Precipitation Wind Pressure Humidity
    00:00 +16°C° 0 mm 1 mps 737 mmHg 86%
    01:00 +15°C° 0 mm 1 mps 737 mmHg 87%
    02:00 +15°C° 0 mm 1 mps 737 mmHg 87%
    03:00 +15°C° 0 mm 1 mps 737 mmHg 87%
    04:00 +14°C° 0 mm 1 mps 737 mmHg 87%
    05:00 +13°C° 0 mm 0 mps 737 mmHg 87%
    06:00 +16°C° 0 mm 1 mps 737 mmHg 83%
    07:00 +18°C° 0 mm 1 mps 737 mmHg 79%
    08:00 +20°C° 0 mm 1 mps 738 mmHg 75%
    09:00 +21°C° 0 mm 1 mps 738 mmHg 69%
    10:00 +23°C° 0 mm 2 mps 738 mmHg 63%
    11:00 +24°C° 0 mm 2 mps 738 mmHg 57%
    12:00 +25°C° 0.1 mm 2 mps 738 mmHg 56%
    13:00 +25°C° 0.1 mm 3 mps 737 mmHg 56%
    14:00 +25°C° 0.1 mm 3 mps 737 mmHg 56%
    15:00 +25°C° 0.4 mm 3 mps 737 mmHg 61%
    16:00 +24°C° 0.4 mm 3 mps 737 mmHg 65%
    17:00 +22°C° 0.4 mm 3 mps 736 mmHg 69%
    18:00 +21°C° 0.3 mm 3 mps 736 mmHg 76%
    19:00 +19°C° 0.3 mm 2 mps 736 mmHg 83%
    20:00 +17°C° 0.3 mm 2 mps 737 mmHg 90%
    21:00 +18°C° 0 mm 1 mps 737 mmHg 91%
    22:00 +16°C° 0 mm 1 mps 737 mmHg 91%
    23:00 +15°C° 0 mm 1 mps 737 mmHg 92%

    Day after tomorrow, 25 May, Friday

    Time Temperature Precipitation Wind Pressure Humidity
    00:00 +15°C° 0 mm 1 mps 737 mmHg 92%
    01:00 +14°C° 0 mm 1 mps 737 mmHg 93%
    02:00 +14°C° 0 mm 1 mps 737 mmHg 93%
    03:00 +14°C° 0 mm 1 mps 737 mmHg 93%
    04:00 +13°C° 0 mm 1 mps 737 mmHg 93%
    05:00 +13°C° 0 mm 1 mps 737 mmHg 94%
    06:00 +15°C° 0 mm 1 mps 737 mmHg 89%
    07:00 +18°C° 0 mm 1 mps 737 mmHg 84%
    08:00 +20°C° 0 mm 1 mps 738 mmHg 79%
    09:00 +21°C° 0.2 mm 1 mps 738 mmHg 75%
    10:00 +21°C° 0.2 mm 2 mps 738 mmHg 70%
    11:00 +23°C° 0.2 mm 2 mps 738 mmHg 66%
    12:00 +24°C° 0.8 mm 3 mps 738 mmHg 68%
    13:00 +24°C° 0.8 mm 3 mps 738 mmHg 69%
    14:00 +24°C° 0.8 mm 3 mps 738 mmHg 70%
    15:00 +24°C° 0.5 mm 3 mps 738 mmHg 71%
    16:00 +24°C° 0.5 mm 3 mps 738 mmHg 72%
    17:00 +24°C° 0.5 mm 3 mps 738 mmHg 73%
    18:00 +23°C° 0.5 mm 2 mps 738 mmHg 77%
    19:00 +20°C° 0.5 mm 2 mps 738 mmHg 82%
    20:00 +19°C° 0.5 mm 2 mps 738 mmHg 87%
    21:00 +18°C° 0.5 mm 2 mps 738 mmHg 89%
    22:00 +17°C° 0.5 mm 2 mps 739 mmHg 90%
    23:00 +17°C° 0.5 mm 2 mps 739 mmHg 92%

    26 May, Saturday

    Time Temperature Precipitation Wind Pressure Humidity
    00:00 +16°C° 0 mm 2 mps 739 mmHg 93%
    01:00 +16°C° 0 mm 2 mps 739 mmHg 94%
    02:00 +16°C° 0 mm 2 mps 739 mmHg 94%
    03:00 +16°C° 0 mm 2 mps 739 mmHg 95%
    04:00 +15°C° 0 mm 2 mps 740 mmHg 96%
    05:00 +15°C° 0 mm 2 mps 740 mmHg 96%
    06:00 +16°C° 0 mm 3 mps 740 mmHg 94%
    07:00 +18°C° 0 mm 3 mps 740 mmHg 92%
    08:00 +19°C° 0 mm 4 mps 741 mmHg 90%
    09:00 +19°C° 0.1 mm 4 mps 741 mmHg 87%
    10:00 +20°C° 0.1 mm 4 mps 741 mmHg 85%
    11:00 +21°C° 0.1 mm 4 mps 741 mmHg 82%
    12:00 +22°C° 0.2 mm 5 mps 741 mmHg 79%
    13:00 +23°C° 0.2 mm 5 mps 741 mmHg 76%
    14:00 +23°C° 0.2 mm 5 mps 741 mmHg 72%
    15:00 +23°C° 0.2 mm 5 mps 740 mmHg 74%
    16:00 +23°C° 0.2 mm 5 mps 740 mmHg 75%
    17:00 +23°C° 0.2 mm 5 mps 740 mmHg 76%
    18:00 +21°C° 0.1 mm 4 mps 740 mmHg 79%
    19:00 +20°C° 0.1 mm 4 mps 741 mmHg 82%
    20:00 +19°C° 0.1 mm 4 mps 741 mmHg 85%
    21:00 +18°C° 0.1 mm 4 mps 741 mmHg 84%
    22:00 +18°C° 0.1 mm 4 mps 741 mmHg 83%
    23:00 +17°C° 0.1 mm 4 mps 741 mmHg 81%

    27 May, Sunday

    Time Temperature Precipitation Wind Pressure Humidity
    00:00 +15°C° 0.2 mm 4 mps 741 mmHg 83%
    01:00 +15°C° 0.2 mm 4 mps 741 mmHg 84%
    02:00 +14°C° 0.2 mm 4 mps 741 mmHg 86%
    03:00 +14°C° 0.1 mm 4 mps 741 mmHg 87%
    04:00 +13°C° 0.1 mm 3 mps 741 mmHg 88%
    05:00 +13°C° 0.1 mm 3 mps 741 mmHg 89%
    06:00 +14°C° 0.1 mm 3 mps 741 mmHg 86%
    07:00 +15°C° 0.1 mm 4 mps 741 mmHg 83%
    08:00 +18°C° 0.1 mm 4 mps 741 mmHg 80%
    09:00 +19°C° 0.1 mm 4 mps 741 mmHg 75%
    10:00 +20°C° 0.1 mm 5 mps 741 mmHg 71%
    11:00 +21°C° 0.1 mm 5 mps 741 mmHg 66%
    12:00 +22°C° 0 mm 5 mps 741 mmHg 64%
    13:00 +22°C° 0 mm 5 mps 741 mmHg 62%
    14:00 +23°C° 0 mm 5 mps 741 mmHg 61%
    15:00 +22°C° 0 mm 5 mps 741 mmHg 62%
    16:00 +22°C° 0 mm 5 mps 741 mmHg 64%
    17:00 +21°C° 0 mm 4 mps 740 mmHg 66%
    18:00 +20°C° 0 mm 4 mps 741 mmHg 71%
    19:00 +18°C° 0 mm 3 mps 741 mmHg 76%
    20:00 +16°C° 0 mm 3 mps 741 mmHg 82%
    21:00 +14°C° 0 mm 3 mps 741 mmHg 82%
    22:00 +13°C° 0 mm 3 mps 741 mmHg 83%
    23:00 +13°C° 0 mm 3 mps 741 mmHg 83%

    28 May, Monday

    Time Temperature Precipitation Wind Pressure Humidity
    00:00 +12°C° 0 mm 3 mps 741 mmHg 84%
    01:00 +11°C° 0 mm 3 mps 741 mmHg 85%
    02:00 +11°C° 0 mm 3 mps 741 mmHg 85%
    03:00 +11°C° 0 mm 3 mps 741 mmHg 85%
    04:00 +10°C° 0 mm 3 mps 741 mmHg 85%
    05:00 +10°C° 0 mm 3 mps 741 mmHg 85%
    06:00 +12°C° 0 mm 3 mps 741 mmHg 79%
    07:00 +14°C° 0 mm 4 mps 741 mmHg 74%
    08:00 +17°C° 0 mm 4 mps 741 mmHg 68%
    09:00 +17°C° 0 mm 5 mps 741 mmHg 64%
    10:00 +20°C° 0 mm 5 mps 741 mmHg 60%
    11:00 +21°C° 0 mm 5 mps 741 mmHg 56%
    12:00 +21°C° 0 mm 5 mps 741 mmHg 55%
    13:00 +22°C° 0 mm 5 mps 741 mmHg 55%
    14:00 +22°C° 0 mm 5 mps 741 mmHg 54%
    15:00 +22°C° 0 mm 5 mps 741 mmHg 56%
    16:00 +22°C° 0 mm 5 mps 740 mmHg 58%
    17:00 +22°C° 0 mm 5 mps 740 mmHg 60%
    18:00 +20°C° 0 mm 4 mps 740 mmHg 66%
    19:00 +18°C° 0 mm 4 mps 740 mmHg 72%
    20:00 +16°C° 0 mm 3 mps 740 mmHg 78%
    21:00 +14°C° 0 mm 3 mps 740 mmHg 80%
    22:00 +14°C° 0 mm 3 mps 740 mmHg 81%
    23:00 +13°C° 0 mm 3 mps 740 mmHg 83%
    Show more